{"data":{"norad_id":66129,"intl_designator":"2025-237R","name":"STARLINK-35632","alt_names":[],"object_type":"PAYLOAD","status":"ACTIVE","operator":null,"country":"US","launch_date":"2025-10-22","launch_site_code":"AFWTR","launch_vehicle":null,"mission":null,"orbit_class":"UNKNOWN","rcs_meters":null,"size_class":null,"mass_kg":null,"dimensions":null,"purposes":["comms"],"wikipedia_slug":null,"has_3d_model":false,"image_url":null,"decayed_at":null,"tle_current":{"epoch":"2026-09-20T04:10:00.465600Z","epoch_age_seconds":128593,"freshness":"FRESH","line1":"1 66129U 25237R   26263.17361650  .00013634  00000+0  41392-3 0  9999","line2":"2 66129  53.1577 215.0812 0001207  80.1662 279.9477 15.34399459 52404","mean_motion":15.34399459,"eccentricity":0.0001207,"inclination_deg":53.1577,"raan_deg":215.0812,"arg_perigee_deg":80.1662,"mean_anomaly_deg":279.9477,"bstar":0.00041392,"rev_number":5240,"period_min":93.847791170265,"perigee_km":461.87915856251,"apogee_km":463.53053778466,"semimajor_km":6840.8418481736,"source":"CELESTRAK","updated_at":"2026-09-21T09:00:35.809411Z"}}}